Time,TemperatureF,DewpointF,PressureIn,WindDirection,WindDirectionDegrees,WindSpeedMPH,WindSpeedGustMPH,Humidity,HourlyPrecipIn,Conditions,Clouds,dailyrainin,SoftwareType,DateUTC
2013-01-21 00:04:00,46.5,15.0,31.13,SW,225,3.3,8.2,28,0.00,,,0.00,WUHU216HW,2013-01-21 07:04:00,
2013-01-21 00:09:00,46.5,15.0,31.13,SW,225,3.5,7.8,28,0.00,,,0.00,WUHU216HW,2013-01-21 07:09:00,
2013-01-21 00:14:00,46.7,15.0,31.13,SW,225,7.8,10.9,28,0.00,,,0.00,WUHU216HW,2013-01-21 07:14:00,
2013-01-21 00:19:00,46.7,15.1,31.13,SW,225,16.3,16.3,28,0.00,,,0.00,WUHU216HW,2013-01-21 07:19:00,
2013-01-21 00:24:00,46.9,15.3,31.12,SW,225,11.6,16.3,28,0.00,,,0.00,WUHU216HW,2013-01-21 07:24:00,
2013-01-21 00:29:00,47.1,14.5,31.12,WSW,248,3.3,12.3,27,0.00,,,0.00,WUHU216HW,2013-01-21 07:29:00,
2013-01-21 00:35:00,47.1,14.4,31.12,SW,225,4.9,12.3,27,0.00,,,0.00,WUHU216HW,2013-01-21 07:35:00,
2013-01-21 00:40:00,46.9,15.3,31.12,SW,225,9.8,9.8,28,0.00,,,0.00,WUHU216HW,2013-01-21 07:40:00,
2013-01-21 00:45:00,46.9,14.4,31.12,SW,225,4.6,10.0,27,0.00,,,0.00,WUHU216HW,2013-01-21 07:45:00,
2013-01-21 00:50:00,46.5,15.0,31.11,SW,225,10.7,10.7,28,0.00,,,0.00,WUHU216HW,2013-01-21 07:50:00,
2013-01-21 00:55:00,46.7,15.1,31.12,SSW,203,12.9,14.9,28,0.00,,,0.00,WUHU216HW,2013-01-21 07:55:00,
2013-01-21 01:00:00,46.5,15.0,31.12,SSW,203,8.5,14.9,28,0.00,,,0.00,WUHU216HW,2013-01-21 08:00:00,
2013-01-21 01:05:00,46.5,15.0,31.11,SW,225,7.3,10.9,28,0.00,,,0.00,WUHU216HW,2013-01-21 08:05:00,
2013-01-21 01:10:00,46.7,15.1,31.11,WSW,248,5.5,12.7,28,0.00,,,0.00,WUHU216HW,2013-01-21 08:10:00,
2013-01-21 01:15:00,46.9,14.4,31.11,SW,225,0.0,12.7,27,0.00,,,0.00,WUHU216HW,2013-01-21 08:15:00,
2013-01-21 01:20:00,46.5,14.2,31.11,SW,225,1.5,5.3,28,0.00,,,0.00,WUHU216HW,2013-01-21 08:20:00,
2013-01-21 01:25:00,46.5,15.0,31.11,SW,225,9.6,9.6,28,0.00,,,0.00,WUHU216HW,2013-01-21 08:25:00,
2013-01-21 01:30:00,46.2,14.7,31.11,SSW,203,3.8,9.6,28,0.00,,,0.00,WUHU216HW,2013-01-21 08:30:00,
2013-01-21 01:35:00,46.2,14.7,31.11,SW,225,6.7,12.9,28,0.00,,,0.00,WUHU216HW,2013-01-21 08:35:00,
2013-01-21 01:40:00,46.2,14.7,31.11,SW,225,7.6,12.9,28,0.00,,,0.00,WUHU216HW,2013-01-21 08:40:00,
2013-01-21 01:45:00,46.2,14.7,31.10,SW,225,9.6,12.9,28,0.00,,,0.00,WUHU216HW,2013-01-21 08:45:00,
2013-01-21 01:50:00,46.2,14.7,31.10,SW,225,7.8,12.9,28,0.00,,,0.00,WUHU216HW,2013-01-21 08:50:00,
2013-01-21 01:55:00,46.2,14.7,31.10,SW,225,10.7,10.7,28,0.00,,,0.00,WUHU216HW,2013-01-21 08:55:00,
2013-01-21 02:00:00,46.0,14.5,31.10,SW,225,14.0,16.7,28,0.00,,,0.00,WUHU216HW,2013-01-21 09:00:00,
2013-01-21 02:05:00,45.6,15.1,31.10,SW,225,10.7,16.7,29,0.00,,,0.00,WUHU216HW,2013-01-21 09:05:00,
2013-01-21 02:10:00,45.1,14.6,31.10,WSW,248,9.8,14.5,29,0.00,,,0.00,WUHU216HW,2013-01-21 09:10:00,
2013-01-21 02:16:00,44.7,14.3,31.10,WSW,248,7.8,14.5,29,0.00,,,0.00,WUHU216HW,2013-01-21 09:16:00,
2013-01-21 02:21:00,44.7,14.3,31.10,WSW,248,10.5,12.9,29,0.00,,,0.00,WUHU216HW,2013-01-21 09:21:00,
2013-01-21 02:26:00,44.7,15.2,31.10,SW,225,17.8,17.8,30,0.00,,,0.00,WUHU216HW,2013-01-21 09:26:00,
2013-01-21 02:31:00,44.7,15.2,31.10,WSW,248,9.6,17.8,30,0.00,,,0.00,WUHU216HW,2013-01-21 09:31:00,
2013-01-21 02:36:00,44.9,14.4,31.10,WSW,248,11.1,20.1,29,0.00,,,0.00,WUHU216HW,2013-01-21 09:36:00,
2013-01-21 02:41:00,44.9,15.4,31.10,WSW,248,8.0,20.1,29,0.00,,,0.00,WUHU216HW,2013-01-21 09:41:00,
2013-01-21 02:47:00,44.7,15.2,31.10,WSW,248,10.9,16.3,30,0.00,,,0.00,WUHU216HW,2013-01-21 09:47:00,
2013-01-21 02:52:00,44.6,15.0,31.10,WSW,248,10.0,16.3,30,0.00,,,0.00,WUHU216HW,2013-01-21 09:52:00,
2013-01-21 02:57:00,44.7,15.2,31.10,WSW,248,9.3,18.7,30,0.00,,,0.00,WUHU216HW,2013-01-21 09:57:00,
2013-01-21 03:02:00,44.9,14.4,31.10,SW,225,10.7,18.7,29,0.00,,,0.00,WUHU216HW,2013-01-21 10:02:00,
2013-01-21 03:07:00,44.9,14.4,31.10,WSW,248,12.9,17.6,29,0.00,,,0.00,WUHU216HW,2013-01-21 10:07:00,
2013-01-21 03:12:00,44.9,14.4,31.10,WSW,248,16.7,17.6,29,0.00,,,0.00,WUHU216HW,2013-01-21 10:12:00,
2013-01-21 03:17:00,45.3,14.8,31.10,WSW,248,17.2,18.5,29,0.00,,,0.00,WUHU216HW,2013-01-21 10:17:00,
2013-01-21 03:22:00,45.5,14.8,31.10,SW,225,19.2,19.2,29,0.00,,,0.00,WUHU216HW,2013-01-21 10:22:00,
2013-01-21 03:27:00,44.9,15.4,31.10,WSW,248,22.1,22.1,30,0.00,,,0.00,WUHU216HW,2013-01-21 10:27:00,
2013-01-21 03:32:00,44.9,15.4,31.10,WSW,248,14.7,23.9,30,0.00,,,0.00,WUHU216HW,2013-01-21 10:32:00,
2013-01-21 03:37:00,44.9,14.4,31.10,WSW,248,7.8,23.9,29,0.00,,,0.00,WUHU216HW,2013-01-21 10:37:00,
2013-01-21 03:42:00,44.6,15.0,31.10,WSW,248,17.2,17.2,30,0.00,,,0.00,WUHU216HW,2013-01-21 10:42:00,
2013-01-21 03:47:00,44.4,14.9,31.10,SW,225,14.5,17.2,30,0.00,,,0.00,WUHU216HW,2013-01-21 10:47:00,
2013-01-21 03:52:00,44.2,14.7,31.09,SW,225,12.0,20.3,30,0.00,,,0.00,WUHU216HW,2013-01-21 10:52:00,
2013-01-21 03:58:00,43.8,15.0,31.09,SW,225,10.9,20.3,31,0.00,,,0.00,WUHU216HW,2013-01-21 10:58:00,
2013-01-21 04:03:00,43.7,14.9,31.09,SW,225,17.0,17.0,31,0.00,,,0.00,WUHU216HW,2013-01-21 11:03:00,
2013-01-21 04:08:00,43.8,15.0,31.09,SW,225,12.9,17.0,31,0.00,,,0.00,WUHU216HW,2013-01-21 11:08:00,
2013-01-21 04:13:00,43.8,15.0,31.09,WSW,248,7.1,12.9,31,0.00,,,0.00,WUHU216HW,2013-01-21 11:13:00,
2013-01-21 04:18:00,44.0,15.2,31.09,WSW,248,11.4,12.9,31,0.00,,,0.00,WUHU216HW,2013-01-21 11:18:00,
2013-01-21 04:23:00,44.2,14.7,31.09,WSW,248,12.7,14.5,30,0.00,,,0.00,WUHU216HW,2013-01-21 11:23:00,
2013-01-21 04:28:00,44.4,14.9,31.09,WSW,248,12.7,14.5,30,0.00,,,0.00,WUHU216HW,2013-01-21 11:28:00,
2013-01-21 04:33:00,44.7,15.2,31.09,WSW,248,10.0,12.7,30,0.00,,,0.00,WUHU216HW,2013-01-21 11:33:00,
2013-01-21 04:38:00,44.7,15.2,31.09,WSW,248,15.2,15.2,30,0.00,,,0.00,WUHU216HW,2013-01-21 11:38:00,
2013-01-21 04:43:00,45.1,14.6,31.08,SSW,203,12.9,15.2,29,0.00,,,0.00,WUHU216HW,2013-01-21 11:43:00,
2013-01-21 04:48:00,46.0,14.5,31.09,SW,225,8.0,14.9,28,0.00,,,0.00,WUHU216HW,2013-01-21 11:48:00,
2013-01-21 04:53:00,46.2,14.7,31.09,SW,225,9.1,12.0,28,0.00,,,0.00,WUHU216HW,2013-01-21 11:53:00,
2013-01-21 04:58:00,46.5,15.0,31.09,SW,225,7.6,15.2,28,0.00,,,0.00,WUHU216HW,2013-01-21 11:58:00,
2013-01-21 05:03:00,46.5,15.0,31.09,SW,225,6.7,15.2,28,0.00,,,0.00,WUHU216HW,2013-01-21 12:03:00,
2013-01-21 05:08:00,46.2,14.7,31.10,WSW,248,4.0,7.1,28,0.00,,,0.00,WUHU216HW,2013-01-21 12:08:00,
2013-01-21 05:14:00,45.6,14.5,31.10,WSW,248,0.0,10.5,29,0.00,,,0.00,WUHU216HW,2013-01-21 12:14:00,
2013-01-21 05:19:00,44.9,14.4,31.10,WSW,248,4.0,10.5,29,0.00,,,0.00,WUHU216HW,2013-01-21 12:19:00,
2013-01-21 05:24:00,44.2,14.7,31.10,WSW,248,6.0,8.2,30,0.00,,,0.00,WUHU216HW,2013-01-21 12:24:00,
2013-01-21 05:29:00,43.8,14.4,31.10,SW,225,11.8,15.4,30,0.00,,,0.00,WUHU216HW,2013-01-21 12:29:00,
2013-01-21 05:34:00,43.8,14.4,31.10,SW,225,7.6,16.3,30,0.00,,,0.00,WUHU216HW,2013-01-21 12:34:00,
2013-01-21 05:39:00,43.8,14.4,31.09,WSW,248,10.9,10.9,30,0.00,,,0.00,WUHU216HW,2013-01-21 12:39:00,
2013-01-21 05:44:00,44.2,14.7,31.10,SW,225,4.4,10.9,30,0.00,,,0.00,WUHU216HW,2013-01-21 12:44:00,
2013-01-21 05:49:00,44.2,14.7,31.09,WSW,248,4.6,12.0,30,0.00,,,0.00,WUHU216HW,2013-01-21 12:49:00,
2013-01-21 05:54:00,43.8,14.4,31.09,WSW,248,7.1,13.1,30,0.00,,,0.00,WUHU216HW,2013-01-21 12:54:00,
2013-01-21 05:59:00,43.8,14.4,31.09,WSW,248,7.8,13.6,30,0.00,,,0.00,WUHU216HW,2013-01-21 12:59:00,
2013-01-21 06:04:00,43.7,14.2,31.10,WSW,248,8.9,13.6,30,0.00,,,0.00,WUHU216HW,2013-01-21 13:04:00,
2013-01-21 06:09:00,43.8,14.4,31.09,SW,225,6.4,19.0,30,0.00,,,0.00,WUHU216HW,2013-01-21 13:09:00,
2013-01-21 06:14:00,43.8,14.4,31.09,WSW,248,17.6,19.0,30,0.00,,,0.00,WUHU216HW,2013-01-21 13:14:00,
2013-01-21 06:19:00,44.0,14.5,31.09,WSW,248,16.5,17.6,30,0.00,,,0.00,WUHU216HW,2013-01-21 13:19:00,
2013-01-21 06:24:00,44.2,14.7,31.09,SW,225,15.2,16.5,30,0.00,,,0.00,WUHU216HW,2013-01-21 13:24:00,
2013-01-21 06:30:00,44.0,14.5,31.09,WSW,248,12.7,16.7,30,0.00,,,0.00,WUHU216HW,2013-01-21 13:30:00,
2013-01-21 06:35:00,44.2,14.7,31.09,WSW,248,17.4,24.6,30,0.00,,,0.00,WUHU216HW,2013-01-21 13:35:00,
2013-01-21 06:40:00,44.2,13.8,31.09,SW,225,20.1,24.6,29,0.00,,,0.00,WUHU216HW,2013-01-21 13:40:00,
2013-01-21 06:45:00,44.4,14.0,31.09,SSW,203,19.9,27.2,29,0.00,,,0.00,WUHU216HW,2013-01-21 13:45:00,
2013-01-21 06:50:00,44.7,14.3,31.10,SSW,203,16.3,27.2,29,0.00,,,0.00,WUHU216HW,2013-01-21 13:50:00,
2013-01-21 06:55:00,44.4,14.0,31.10,SSW,203,2.4,17.2,29,0.00,,,0.00,WUHU216HW,2013-01-21 13:55:00,
2013-01-21 07:00:00,44.4,14.0,31.10,South,180,0.0,10.0,29,0.00,,,0.00,WUHU216HW,2013-01-21 14:00:00,
2013-01-21 07:05:00,43.5,13.2,31.10,SE,135,2.6,7.6,29,0.00,,,0.00,WUHU216HW,2013-01-21 14:05:00,
2013-01-21 07:10:00,43.3,13.0,31.11,SW,225,0.0,2.6,29,0.00,,,0.00,WUHU216HW,2013-01-21 14:10:00,
2013-01-21 07:15:00,43.5,13.2,31.11,NNW,338,0.0,6.7,29,0.00,,,0.00,WUHU216HW,2013-01-21 14:15:00,
2013-01-21 07:20:00,43.3,13.0,31.11,NNW,338,0.0,6.7,29,0.00,,,0.00,WUHU216HW,2013-01-21 14:20:00,
2013-01-21 07:26:00,43.3,13.9,31.12,SW,225,0.0,3.1,30,0.00,,,0.00,WUHU216HW,2013-01-21 14:26:00,
2013-01-21 07:31:00,43.3,13.9,31.12,WSW,248,7.1,7.1,30,0.00,,,0.00,WUHU216HW,2013-01-21 14:31:00,
2013-01-21 07:36:00,43.5,14.1,31.12,West,270,8.2,8.2,30,0.00,,,0.00,WUHU216HW,2013-01-21 14:36:00,
2013-01-21 07:41:00,43.5,14.1,31.12,West,270,3.1,8.2,30,0.00,,,0.00,WUHU216HW,2013-01-21 14:41:00,
2013-01-21 07:46:00,43.3,13.9,31.12,WSW,248,12.5,12.5,30,0.00,,,0.00,WUHU216HW,2013-01-21 14:46:00,
2013-01-21 07:51:00,42.9,13.6,31.13,WSW,248,5.3,14.9,30,0.00,,,0.00,WUHU216HW,2013-01-21 14:51:00,
2013-01-21 07:56:00,42.4,13.8,31.13,WSW,248,11.8,14.9,31,0.00,,,0.00,WUHU216HW,2013-01-21 14:56:00,
2013-01-21 08:01:00,42.4,13.5,31.13,WSW,248,6.2,11.8,31,0.00,,,0.00,WUHU216HW,2013-01-21 15:01:00,
2013-01-21 08:06:00,42.6,13.3,31.13,WSW,248,0.0,6.2,30,0.00,,,0.00,WUHU216HW,2013-01-21 15:06:00,
2013-01-21 08:11:00,43.1,13.7,31.13,WSW,248,3.5,3.5,30,0.00,,,0.00,WUHU216HW,2013-01-21 15:11:00,
2013-01-21 08:16:00,44.4,14.0,31.13,WSW,248,2.9,3.5,29,0.00,,,0.00,WUHU216HW,2013-01-21 15:16:00,
2013-01-21 08:21:00,45.5,13.7,31.14,WSW,248,2.4,4.2,28,0.00,,,0.00,WUHU216HW,2013-01-21 15:21:00,
2013-01-21 08:26:00,47.1,13.4,31.13,WSW,248,5.3,7.8,26,0.00,,,0.00,WUHU216HW,2013-01-21 15:26:00,
2013-01-21 08:31:00,49.2,14.5,31.13,WSW,248,8.2,9.1,25,0.00,,,0.00,WUHU216HW,2013-01-21 15:31:00,
2013-01-21 08:36:00,50.1,14.3,31.13,WSW,248,8.7,11.8,24,0.00,,,0.00,WUHU216HW,2013-01-21 15:36:00,
2013-01-21 08:41:00,50.5,14.7,31.12,WSW,248,10.9,17.0,24,0.00,,,0.00,WUHU216HW,2013-01-21 15:41:00,
2013-01-21 08:46:00,50.9,14.0,31.13,WSW,248,13.4,20.3,23,0.00,,,0.00,WUHU216HW,2013-01-21 15:46:00,
2013-01-21 08:52:00,51.4,14.5,31.12,WSW,248,13.1,20.3,23,0.00,,,0.00,WUHU216HW,2013-01-21 15:52:00,
2013-01-21 08:57:00,51.6,14.6,31.12,WSW,248,20.3,20.3,23,0.00,,,0.00,WUHU216HW,2013-01-21 15:57:00,
2013-01-21 09:02:00,52.3,15.2,31.13,WSW,248,11.4,20.5,23,0.00,,,0.00,WUHU216HW,2013-01-21 16:02:00,
2013-01-21 09:07:00,52.8,14.7,31.13,WSW,248,10.9,16.5,22,0.00,,,0.00,WUHU216HW,2013-01-21 16:07:00,
2013-01-21 09:12:00,53.4,15.2,31.13,WSW,248,14.9,17.8,22,0.00,,,0.00,WUHU216HW,2013-01-21 16:12:00,
2013-01-21 09:17:00,53.9,15.6,31.13,WSW,248,13.6,17.8,22,0.00,,,0.00,WUHU216HW,2013-01-21 16:17:00,
2013-01-21 09:22:00,55.0,15.6,31.13,WSW,248,13.8,17.2,21,0.00,,,0.00,WUHU216HW,2013-01-21 16:22:00,
2013-01-21 09:27:00,55.2,15.6,31.14,WSW,248,12.5,16.7,21,0.00,,,0.00,WUHU216HW,2013-01-21 16:27:00,
2013-01-21 09:32:00,55.9,15.5,31.14,WSW,248,19.2,19.9,20,0.00,,,0.00,WUHU216HW,2013-01-21 16:32:00,
2013-01-21 09:37:00,56.8,16.2,31.14,WSW,248,17.6,19.9,20,0.00,,,0.00,WUHU216HW,2013-01-21 16:37:00,
2013-01-21 09:42:00,57.9,15.5,31.14,WSW,248,23.0,23.0,19,0.00,,,0.00,WUHU216HW,2013-01-21 16:42:00,
2013-01-21 09:47:00,58.2,15.8,31.15,WSW,248,16.3,23.0,19,0.00,,,0.00,WUHU216HW,2013-01-21 16:47:00,
2013-01-21 09:53:00,58.8,16.2,31.15,WSW,248,14.0,16.3,19,0.00,,,0.00,WUHU216HW,2013-01-21 16:53:00,
2013-01-21 09:58:00,58.8,16.1,31.15,WSW,248,12.0,14.0,19,0.00,,,0.00,WUHU216HW,2013-01-21 16:58:00,
2013-01-21 10:03:00,58.2,15.8,31.15,WSW,248,7.6,15.8,19,0.00,,,0.00,WUHU216HW,2013-01-21 17:03:00,
2013-01-21 10:08:00,59.0,16.2,31.15,WSW,248,10.0,21.9,19,0.00,,,0.00,WUHU216HW,2013-01-21 17:08:00,
2013-01-21 10:13:00,59.9,15.6,31.15,WSW,248,18.5,21.9,18,0.00,,,0.00,WUHU216HW,2013-01-21 17:13:00,
2013-01-21 10:18:00,60.4,16.1,31.15,WSW,248,13.8,18.5,18,0.00,,,0.00,WUHU216HW,2013-01-21 17:18:00,
2013-01-21 10:23:00,60.4,16.1,31.15,WSW,248,20.8,20.8,18,0.00,,,0.00,WUHU216HW,2013-01-21 17:23:00,
2013-01-21 10:28:00,60.6,16.2,31.15,WSW,248,20.3,20.8,18,0.00,,,0.00,WUHU216HW,2013-01-21 17:28:00,
2013-01-21 10:33:00,60.8,14.8,31.15,WSW,248,21.4,21.4,17,0.00,,,0.00,WUHU216HW,2013-01-21 17:33:00,
2013-01-21 10:38:00,60.9,15.0,31.15,WSW,248,22.3,24.3,17,0.00,,,0.00,WUHU216HW,2013-01-21 17:38:00,
2013-01-21 10:43:00,60.9,15.0,31.14,WSW,248,20.5,24.3,17,0.00,,,0.00,WUHU216HW,2013-01-21 17:43:00,
2013-01-21 10:48:00,61.3,15.3,31.15,WSW,248,12.5,26.3,17,0.00,,,0.00,WUHU216HW,2013-01-21 17:48:00,
2013-01-21 10:53:00,61.5,15.4,31.15,WSW,248,20.8,26.3,17,0.00,,,0.00,WUHU216HW,2013-01-21 17:53:00,
2013-01-21 10:58:00,62.4,14.6,31.15,WSW,248,25.9,25.9,16,0.00,,,0.00,WUHU216HW,2013-01-21 17:58:00,
2013-01-21 11:03:00,62.9,15.0,31.15,WSW,248,14.9,25.9,16,0.00,,,0.00,WUHU216HW,2013-01-21 18:03:00,
2013-01-21 11:08:00,63.1,15.0,31.15,WSW,248,22.5,22.8,16,0.00,,,0.00,WUHU216HW,2013-01-21 18:08:00,
2013-01-21 11:13:00,63.1,15.1,31.15,WSW,248,18.3,22.5,16,0.00,,,0.00,WUHU216HW,2013-01-21 18:13:00,
2013-01-21 11:18:00,63.6,15.4,31.15,WSW,248,21.0,21.9,16,0.00,,,0.00,WUHU216HW,2013-01-21 18:18:00,
2013-01-21 11:23:00,64.0,15.8,31.15,WSW,248,18.5,21.9,15,0.00,,,0.00,WUHU216HW,2013-01-21 18:23:00,
2013-01-21 11:28:00,64.2,12.8,31.15,WSW,248,16.1,25.5,14,0.00,,,0.00,WUHU216HW,2013-01-21 18:28:00,
2013-01-21 11:34:00,64.7,13.2,31.15,WSW,248,20.1,25.5,14,0.00,,,0.00,WUHU216HW,2013-01-21 18:34:00,
2013-01-21 11:39:00,65.1,13.5,31.15,WSW,248,12.5,23.9,14,0.00,,,0.00,WUHU216HW,2013-01-21 18:39:00,
2013-01-21 11:44:00,65.1,13.5,31.15,WSW,248,27.9,27.9,14,0.00,,,0.00,WUHU216HW,2013-01-21 18:44:00,
2013-01-21 11:49:00,65.8,14.1,31.15,WSW,248,13.4,27.9,14,0.00,,,0.00,WUHU216HW,2013-01-21 18:49:00,
2013-01-21 11:54:00,66.7,13.2,31.15,WSW,248,17.2,20.1,13,0.00,,,0.00,WUHU216HW,2013-01-21 18:54:00,
2013-01-21 11:59:00,66.9,13.4,31.14,WSW,248,18.7,18.7,13,0.00,,,0.00,WUHU216HW,2013-01-21 18:59:00,
2013-01-21 12:04:00,66.9,13.4,31.13,WSW,248,24.1,24.1,13,0.00,,,0.00,WUHU216HW,2013-01-21 19:04:00,
2013-01-21 12:09:00,67.6,14.0,31.14,WSW,248,23.7,24.1,13,0.00,,,0.00,WUHU216HW,2013-01-21 19:09:00,
2013-01-21 12:14:00,67.6,14.0,31.13,WSW,248,21.6,23.7,13,0.00,,,0.00,WUHU216HW,2013-01-21 19:14:00,
2013-01-21 12:19:00,67.6,14.0,31.13,SSW,203,25.2,25.2,13,0.00,,,0.00,WUHU216HW,2013-01-21 19:19:00,
2013-01-21 12:24:00,67.6,14.0,31.13,WSW,248,17.2,25.2,13,0.00,,,0.00,WUHU216HW,2013-01-21 19:24:00,
2013-01-21 12:29:00,67.2,13.6,31.13,SW,225,12.9,22.1,13,0.00,,,0.00,WUHU216HW,2013-01-21 19:29:00,
2013-01-21 12:34:00,67.6,14.0,31.13,SW,225,9.1,22.8,13,0.00,,,0.00,WUHU216HW,2013-01-21 19:34:00,
2013-01-21 12:40:00,67.8,14.1,31.12,WSW,248,14.5,22.8,13,0.00,,,0.00,WUHU216HW,2013-01-21 19:40:00,
2013-01-21 12:45:00,67.8,14.1,31.12,SSW,203,15.6,18.7,13,0.00,,,0.00,WUHU216HW,2013-01-21 19:45:00,
2013-01-21 12:50:00,68.1,14.4,31.12,WSW,248,11.8,20.8,13,0.00,,,0.00,WUHU216HW,2013-01-21 19:50:00,
2013-01-21 12:55:00,68.3,14.5,31.11,South,180,12.9,21.4,13,0.00,,,0.00,WUHU216HW,2013-01-21 19:55:00,
2013-01-21 13:00:00,68.7,14.6,31.11,SW,225,16.7,21.6,13,0.00,,,0.00,WUHU216HW,2013-01-21 20:00:00,
2013-01-21 13:05:00,68.5,14.6,31.11,SW,225,12.0,21.6,13,0.00,,,0.00,WUHU216HW,2013-01-21 20:05:00,
2013-01-21 13:10:00,68.9,14.9,31.11,SW,225,13.4,20.8,13,0.00,,,0.00,WUHU216HW,2013-01-21 20:10:00,
2013-01-21 13:15:00,69.2,15.2,31.11,SW,225,7.8,17.0,13,0.00,,,0.00,WUHU216HW,2013-01-21 20:15:00,
2013-01-21 13:20:00,69.8,14.0,31.10,SW,225,11.6,17.8,12,0.00,,,0.00,WUHU216HW,2013-01-21 20:20:00,
2013-01-21 13:25:00,70.3,14.4,31.10,SSW,203,6.4,17.8,12,0.00,,,0.00,WUHU216HW,2013-01-21 20:25:00,
2013-01-21 13:31:00,70.7,14.7,31.10,SSW,203,21.0,21.0,12,0.00,,,0.00,WUHU216HW,2013-01-21 20:31:00,
2013-01-21 13:36:00,70.3,14.4,31.10,WSW,248,13.8,24.8,12,0.00,,,0.00,WUHU216HW,2013-01-21 20:36:00,
2013-01-21 13:41:00,70.3,14.2,31.09,SW,225,17.6,24.8,12,0.00,,,0.00,WUHU216HW,2013-01-21 20:41:00,
2013-01-21 13:46:00,69.9,14.1,31.10,SW,225,11.8,23.0,12,0.00,,,0.00,WUHU216HW,2013-01-21 20:46:00,
2013-01-21 13:51:00,70.3,14.4,31.09,SW,225,12.9,22.8,12,0.00,,,0.00,WUHU216HW,2013-01-21 20:51:00,
2013-01-21 13:56:00,70.1,14.2,31.09,SW,225,15.2,20.3,12,0.00,,,0.00,WUHU216HW,2013-01-21 20:56:00,
2013-01-21 14:01:00,69.9,14.1,31.09,WSW,248,11.6,26.8,12,0.00,,,0.00,WUHU216HW,2013-01-21 21:01:00,
2013-01-21 14:06:00,70.7,14.7,31.09,SSW,203,9.3,26.8,12,0.00,,,0.00,WUHU216HW,2013-01-21 21:06:00,
2013-01-21 14:11:00,71.7,15.5,31.08,WSW,248,15.2,20.8,12,0.00,,,0.00,WUHU216HW,2013-01-21 21:11:00,
2013-01-21 14:16:00,72.3,16.0,31.08,SSW,203,15.4,18.3,12,0.00,,,0.00,WUHU216HW,2013-01-21 21:16:00,
2013-01-21 14:21:00,72.1,15.8,31.08,SW,225,10.2,18.1,12,0.00,,,0.00,WUHU216HW,2013-01-21 21:21:00,
2013-01-21 14:26:00,72.3,16.0,31.08,SSW,203,18.1,19.0,12,0.00,,,0.00,WUHU216HW,2013-01-21 21:26:00,
2013-01-21 14:31:00,71.9,15.7,31.07,SSW,203,19.0,21.9,12,0.00,,,0.00,WUHU216HW,2013-01-21 21:31:00,
2013-01-21 14:36:00,71.7,15.5,31.07,SW,225,18.3,23.4,12,0.00,,,0.00,WUHU216HW,2013-01-21 21:36:00,
2013-01-21 14:41:00,72.1,15.8,31.08,SSW,203,10.9,23.4,12,0.00,,,0.00,WUHU216HW,2013-01-21 21:41:00,
2013-01-21 14:46:00,71.7,15.5,31.08,WSW,248,16.7,21.4,12,0.00,,,0.00,WUHU216HW,2013-01-21 21:46:00,
2013-01-21 14:51:00,71.7,15.5,31.09,SSW,203,12.7,17.4,12,0.00,,,0.00,WUHU216HW,2013-01-21 21:51:00,
2013-01-21 14:57:00,73.7,16.9,31.10,SE,135,3.3,17.4,12,0.00,,,0.00,WUHU216HW,2013-01-21 21:57:00,
2013-01-21 15:02:00,75.7,16.9,31.10,SE,135,12.3,15.8,11,0.00,,,0.00,WUHU216HW,2013-01-21 22:02:00,
2013-01-21 15:07:00,75.9,17.1,31.10,SSE,158,5.3,15.6,11,0.00,,,0.00,WUHU216HW,2013-01-21 22:07:00,
2013-01-21 15:12:00,78.4,18.7,31.10,SE,135,9.3,12.7,11,0.00,,,0.00,WUHU216HW,2013-01-21 22:12:00,
2013-01-21 15:17:00,78.4,19.0,31.10,SE,135,0.0,15.2,11,0.00,,,0.00,WUHU216HW,2013-01-21 22:17:00,
2013-01-21 15:22:00,77.5,18.3,31.10,SSE,158,0.0,11.1,11,0.00,,,0.00,WUHU216HW,2013-01-21 22:22:00,
2013-01-21 15:27:00,78.4,19.0,31.09,South,180,0.0,10.7,11,0.00,,,0.00,WUHU216HW,2013-01-21 22:27:00,
2013-01-21 15:32:00,78.6,17.4,31.10,South,180,11.6,12.7,10,0.00,,,0.00,WUHU216HW,2013-01-21 22:32:00,
2013-01-21 15:37:00,77.0,17.8,31.09,SE,135,13.4,16.5,11,0.00,,,0.00,WUHU216HW,2013-01-21 22:37:00,
2013-01-21 15:42:00,75.0,16.4,31.10,SE,135,10.0,16.5,11,0.00,,,0.00,WUHU216HW,2013-01-21 22:42:00,
2013-01-21 15:47:00,74.6,16.1,31.10,ESE,113,11.8,16.1,11,0.00,,,0.00,WUHU216HW,2013-01-21 22:47:00,
2013-01-21 15:52:00,74.1,15.7,31.10,SE,135,9.8,16.3,11,0.00,,,0.00,WUHU216HW,2013-01-21 22:52:00,
2013-01-21 15:57:00,73.5,17.0,31.10,SE,135,10.5,16.7,12,0.00,,,0.00,WUHU216HW,2013-01-21 22:57:00,
2013-01-21 16:02:00,73.2,16.7,31.10,SE,135,11.8,16.7,12,0.00,,,0.00,WUHU216HW,2013-01-21 23:02:00,
2013-01-21 16:08:00,73.2,16.7,31.10,SE,135,15.4,15.4,12,0.00,,,0.00,WUHU216HW,2013-01-21 23:08:00,
2013-01-21 16:13:00,72.5,16.1,31.09,ESE,113,12.7,15.8,12,0.00,,,0.00,WUHU216HW,2013-01-21 23:13:00,
2013-01-21 16:18:00,72.1,15.8,31.09,SE,135,10.7,15.8,12,0.00,,,0.00,WUHU216HW,2013-01-21 23:18:00,
2013-01-21 16:23:00,71.2,15.1,31.09,SSE,158,19.4,19.4,12,0.00,,,0.00,WUHU216HW,2013-01-21 23:23:00,
2013-01-21 16:28:00,70.5,14.5,31.09,SSE,158,16.7,19.4,12,0.00,,,0.00,WUHU216HW,2013-01-21 23:28:00,
2013-01-21 16:33:00,69.6,15.4,31.09,SSE,158,10.5,16.7,13,0.00,,,0.00,WUHU216HW,2013-01-21 23:33:00,
2013-01-21 16:38:00,70.3,15.9,31.09,South,180,6.2,12.0,13,0.00,,,0.00,WUHU216HW,2013-01-21 23:38:00,
2013-01-21 16:43:00,71.2,15.1,31.09,SSW,203,4.6,12.5,12,0.00,,,0.00,WUHU216HW,2013-01-21 23:43:00,
2013-01-21 16:48:00,71.9,15.7,31.09,SW,225,7.3,12.5,12,0.00,,,0.00,WUHU216HW,2013-01-21 23:48:00,
2013-01-21 16:53:00,71.4,15.2,31.10,WSW,248,2.9,8.9,12,0.00,,,0.00,WUHU216HW,2013-01-21 23:53:00,
2013-01-21 16:58:00,70.1,14.2,31.10,WSW,248,4.4,9.3,12,0.00,,,0.00,WUHU216HW,2013-01-21 23:58:00,
2013-01-21 17:04:00,69.4,13.7,31.09,WSW,248,6.7,9.3,12,0.00,,,0.00,WUHU216HW,2013-01-22 00:04:00,
2013-01-21 17:09:00,68.7,13.2,31.09,WSW,248,9.6,10.0,12,0.00,,,0.00,WUHU216HW,2013-01-22 00:09:00,
2013-01-21 17:14:00,68.1,14.4,31.09,WSW,248,5.8,10.0,13,0.00,,,0.00,WUHU216HW,2013-01-22 00:14:00,
2013-01-21 17:19:00,67.8,14.1,31.09,SW,225,2.6,6.9,13,0.00,,,0.00,WUHU216HW,2013-01-22 00:19:00,
2013-01-21 17:24:00,67.1,13.6,31.09,SW,225,6.9,7.1,13,0.00,,,0.00,WUHU216HW,2013-01-22 00:24:00,
2013-01-21 17:29:00,67.1,13.5,31.09,SW,225,3.5,7.1,13,0.00,,,0.00,WUHU216HW,2013-01-22 00:29:00,
2013-01-21 17:34:00,66.9,13.4,31.09,SSW,203,4.2,5.5,13,0.00,,,0.00,WUHU216HW,2013-01-22 00:34:00,
2013-01-21 17:39:00,66.0,12.9,31.10,South,180,5.3,10.0,13,0.00,,,0.00,WUHU216HW,2013-01-22 00:39:00,
2013-01-21 17:44:00,64.5,13.1,31.10,SSE,158,6.0,10.0,14,0.00,,,0.00,WUHU216HW,2013-01-22 00:44:00,
2013-01-21 17:49:00,62.2,11.3,31.10,South,180,6.7,9.3,14,0.00,,,0.00,WUHU216HW,2013-01-22 00:49:00,
2013-01-21 17:54:00,59.9,12.5,31.10,SSE,158,0.0,8.0,16,0.00,,,0.00,WUHU216HW,2013-01-22 00:54:00,
2013-01-21 18:00:00,58.2,9.7,31.10,SSE,158,4.6,8.0,15,0.00,,,0.00,WUHU216HW,2013-01-22 01:00:00,
2013-01-21 18:05:00,57.0,11.7,31.10,SSE,158,0.0,7.6,17,0.00,,,0.00,WUHU216HW,2013-01-22 01:05:00,
2013-01-21 18:10:00,55.9,10.9,31.10,SSE,158,0.0,6.7,17,0.00,,,0.00,WUHU216HW,2013-01-22 01:10:00,
2013-01-21 18:15:00,55.2,11.8,31.10,South,180,0.0,0.0,18,0.00,,,0.00,WUHU216HW,2013-01-22 01:15:00,
2013-01-21 18:20:00,55.0,11.6,31.10,SW,225,2.6,7.8,18,0.00,,,0.00,WUHU216HW,2013-01-22 01:20:00,
2013-01-21 18:25:00,55.0,11.6,31.11,WSW,248,3.5,7.8,18,0.00,,,0.00,WUHU216HW,2013-01-22 01:25:00,
2013-01-21 18:30:00,54.6,11.3,31.11,WSW,248,2.2,3.5,18,0.00,,,0.00,WUHU216HW,2013-01-22 01:30:00,
2013-01-21 18:35:00,54.1,12.4,31.11,SSW,203,0.0,6.2,19,0.00,,,0.00,WUHU216HW,2013-01-22 01:35:00,
2013-01-21 18:40:00,53.4,11.8,31.11,South,180,2.0,6.2,19,0.00,,,0.00,WUHU216HW,2013-01-22 01:40:00,
2013-01-21 18:45:00,53.2,11.6,31.11,South,180,6.2,6.2,19,0.00,,,0.00,WUHU216HW,2013-01-22 01:45:00,
2013-01-21 18:50:00,53.2,11.6,31.11,South,180,4.4,10.2,19,0.00,,,0.00,WUHU216HW,2013-01-22 01:50:00,
2013-01-21 18:55:00,53.2,11.6,31.11,South,180,0.4,10.2,19,0.00,,,0.00,WUHU216HW,2013-01-22 01:55:00,
2013-01-21 19:00:00,52.8,11.3,31.11,South,180,1.5,4.0,19,0.00,,,0.00,WUHU216HW,2013-01-22 02:00:00,
2013-01-21 19:06:00,52.7,11.2,31.11,SSE,158,0.4,5.3,19,0.00,,,0.00,WUHU216HW,2013-01-22 02:06:00,
2013-01-21 19:11:00,52.5,12.5,31.11,South,180,2.6,5.3,20,0.00,,,0.00,WUHU216HW,2013-01-22 02:11:00,
2013-01-21 19:16:00,52.7,12.7,31.11,SW,225,0.8,6.9,20,0.00,,,0.00,WUHU216HW,2013-01-22 02:16:00,
2013-01-21 19:21:00,52.3,12.4,31.10,South,180,5.8,6.9,20,0.00,,,0.00,WUHU216HW,2013-01-22 02:21:00,
2013-01-21 19:26:00,52.1,12.3,31.10,SW,225,8.9,8.9,20,0.00,,,0.00,WUHU216HW,2013-01-22 02:26:00,
2013-01-21 19:31:00,52.5,12.5,31.10,SSW,203,3.1,11.6,20,0.00,,,0.00,WUHU216HW,2013-01-22 02:31:00,
2013-01-21 19:36:00,53.2,13.1,31.10,SW,225,5.3,11.6,20,0.00,,,0.00,WUHU216HW,2013-01-22 02:36:00,
2013-01-21 19:41:00,53.7,13.6,31.10,SW,225,8.9,18.5,20,0.00,,,0.00,WUHU216HW,2013-01-22 02:41:00,
2013-01-21 19:46:00,53.7,12.0,31.10,SSW,203,6.9,18.5,19,0.00,,,0.00,WUHU216HW,2013-01-22 02:46:00,
2013-01-21 19:51:00,53.7,12.2,31.10,SW,225,7.1,13.4,19,0.00,,,0.00,WUHU216HW,2013-01-22 02:51:00,
2013-01-21 19:56:00,53.7,12.0,31.10,SW,225,9.6,10.0,19,0.00,,,0.00,WUHU216HW,2013-01-22 02:56:00,
2013-01-21 20:01:00,53.6,11.9,31.10,SW,225,4.6,11.4,19,0.00,,,0.00,WUHU216HW,2013-01-22 03:01:00,
2013-01-21 20:07:00,53.4,11.8,31.10,SSW,203,12.5,12.5,19,0.00,,,0.00,WUHU216HW,2013-01-22 03:07:00,
2013-01-21 20:12:00,53.4,13.3,31.10,SSW,203,10.5,12.5,20,0.00,,,0.00,WUHU216HW,2013-01-22 03:12:00,
2013-01-21 20:17:00,53.2,13.1,31.10,SSW,203,8.2,14.0,20,0.00,,,0.00,WUHU216HW,2013-01-22 03:17:00,
2013-01-21 20:22:00,52.7,12.7,31.10,SW,225,10.0,14.0,20,0.00,,,0.00,WUHU216HW,2013-01-22 03:22:00,
2013-01-21 20:27:00,52.5,12.5,31.10,SW,225,5.1,10.5,20,0.00,,,0.00,WUHU216HW,2013-01-22 03:27:00,
2013-01-21 20:32:00,52.1,12.3,31.10,WSW,248,7.3,9.1,20,0.00,,,0.00,WUHU216HW,2013-01-22 03:32:00,
2013-01-21 20:37:00,52.1,12.3,31.10,SSW,203,9.8,10.2,20,0.00,,,0.00,WUHU216HW,2013-01-22 03:37:00,
2013-01-21 20:42:00,52.1,12.3,31.10,SW,225,8.7,10.2,20,0.00,,,0.00,WUHU216HW,2013-01-22 03:42:00,
2013-01-21 20:47:00,51.9,12.1,31.09,SW,225,6.7,9.6,20,0.00,,,0.00,WUHU216HW,2013-01-22 03:47:00,
2013-01-21 20:52:00,51.8,12.0,31.09,SW,225,8.9,9.6,20,0.00,,,0.00,WUHU216HW,2013-01-22 03:52:00,
2013-01-21 20:57:00,51.8,12.1,31.09,SSW,203,17.6,17.6,20,0.00,,,0.00,WUHU216HW,2013-01-22 03:57:00,
2013-01-21 21:02:00,51.8,12.0,31.09,SW,225,10.7,17.6,20,0.00,,,0.00,WUHU216HW,2013-01-22 04:02:00,
2013-01-21 21:07:00,51.6,11.8,31.09,WSW,248,4.9,17.6,20,0.00,,,0.00,WUHU216HW,2013-01-22 04:07:00,
2013-01-21 21:12:00,51.4,11.7,31.10,WSW,248,8.7,15.2,21,0.00,,,0.00,WUHU216HW,2013-01-22 04:12:00,
2013-01-21 21:17:00,51.2,12.3,31.10,WSW,248,12.5,12.7,21,0.00,,,0.00,WUHU216HW,2013-01-22 04:17:00,
2013-01-21 21:22:00,50.9,12.2,31.10,SW,225,8.0,12.5,21,0.00,,,0.00,WUHU216HW,2013-01-22 04:22:00,
2013-01-21 21:28:00,50.7,12.0,31.10,WSW,248,12.5,15.2,21,0.00,,,0.00,WUHU216HW,2013-01-22 04:28:00,
2013-01-21 21:33:00,50.5,11.9,31.10,SSW,203,7.8,15.2,21,0.00,,,0.00,WUHU216HW,2013-01-22 04:33:00,
2013-01-21 21:38:00,50.5,11.9,31.10,SW,225,7.1,11.6,21,0.00,,,0.00,WUHU216HW,2013-01-22 04:38:00,
2013-01-21 21:43:00,50.1,11.6,31.11,WSW,248,4.4,11.6,21,0.00,,,0.00,WUHU216HW,2013-01-22 04:43:00,
2013-01-21 21:48:00,50.1,11.6,31.11,WSW,248,12.3,12.3,21,0.00,,,0.00,WUHU216HW,2013-01-22 04:48:00,
2013-01-21 21:53:00,49.8,11.3,31.11,SW,225,11.4,12.3,21,0.00,,,0.00,WUHU216HW,2013-01-22 04:53:00,
2013-01-21 21:58:00,49.6,12.0,31.10,SW,225,8.9,11.4,22,0.00,,,0.00,WUHU216HW,2013-01-22 04:58:00,
2013-01-21 22:00:00,49.4,11.9,31.11,WSW,248,3.1,11.4,22,0.00,,,0.00,WUHU216HW,2013-01-22 05:00:00,
2013-01-21 22:02:00,49.2,11.7,31.10,WSW,248,6.7,10.9,22,0.00,,,0.00,WUHU216HW,2013-01-22 05:02:00,
2013-01-21 22:07:00,49.2,11.7,31.11,SW,225,2.4,12.5,22,0.00,,,0.00,WUHU216HW,2013-01-22 05:07:00,
2013-01-21 22:13:00,49.2,11.7,31.12,SW,225,1.1,12.5,22,0.00,,,0.00,WUHU216HW,2013-01-22 05:13:00,
2013-01-21 22:18:00,48.9,11.4,31.13,SW,225,0.0,10.2,22,0.00,,,0.00,WUHU216HW,2013-01-22 05:18:00,
2013-01-21 22:23:00,47.8,10.6,31.13,SW,225,0.0,0.0,22,0.00,,,0.00,WUHU216HW,2013-01-22 05:23:00,
2013-01-21 22:28:00,47.3,11.0,31.13,SW,225,0.0,2.4,23,0.00,,,0.00,WUHU216HW,2013-01-22 05:28:00,
2013-01-21 22:33:00,47.1,10.8,31.13,WSW,248,7.6,8.0,23,0.00,,,0.00,WUHU216HW,2013-01-22 05:33:00,
2013-01-21 22:38:00,47.3,11.0,31.13,WSW,248,0.0,8.0,23,0.00,,,0.00,WUHU216HW,2013-01-22 05:38:00,
2013-01-21 22:43:00,47.3,11.0,31.13,SW,225,3.5,9.3,23,0.00,,,0.00,WUHU216HW,2013-01-22 05:43:00,
2013-01-21 22:48:00,48.0,11.6,31.13,WSW,248,10.5,10.5,23,0.00,,,0.00,WUHU216HW,2013-01-22 05:48:00,
2013-01-21 22:53:00,48.3,11.9,31.12,WSW,248,10.2,11.4,23,0.00,,,0.00,WUHU216HW,2013-01-22 05:53:00,
2013-01-21 22:58:00,48.7,12.2,31.13,WSW,248,5.8,14.0,23,0.00,,,0.00,WUHU216HW,2013-01-22 05:58:00,
2013-01-21 23:03:00,48.7,12.2,31.13,WSW,248,8.2,15.8,23,0.00,,,0.00,WUHU216HW,2013-01-22 06:03:00,
2013-01-21 23:08:00,48.7,12.2,31.13,WSW,248,10.7,15.8,23,0.00,,,0.00,WUHU216HW,2013-01-22 06:08:00,
2013-01-21 23:13:00,48.5,12.0,31.13,WSW,248,8.7,14.0,23,0.00,,,0.00,WUHU216HW,2013-01-22 06:13:00,
2013-01-21 23:18:00,48.7,12.2,31.13,WSW,248,12.9,14.0,23,0.00,,,0.00,WUHU216HW,2013-01-22 06:18:00,
2013-01-21 23:23:00,49.4,11.9,31.13,WSW,248,6.7,13.1,22,0.00,,,0.00,WUHU216HW,2013-01-22 06:23:00,
2013-01-21 23:28:00,49.2,11.7,31.13,WSW,248,5.5,13.1,22,0.00,,,0.00,WUHU216HW,2013-01-22 06:28:00,
2013-01-21 23:33:00,49.2,11.7,31.13,WSW,248,7.3,11.6,22,0.00,,,0.00,WUHU216HW,2013-01-22 06:33:00,
2013-01-21 23:38:00,49.1,11.6,31.13,WSW,248,13.1,13.1,22,0.00,,,0.00,WUHU216HW,2013-01-22 06:38:00,
2013-01-21 23:43:00,49.1,11.6,31.13,SW,225,12.0,13.1,22,0.00,,,0.00,WUHU216HW,2013-01-22 06:43:00,
2013-01-21 23:49:00,49.2,11.7,31.14,WSW,248,8.7,12.9,22,0.00,,,0.00,WUHU216HW,2013-01-22 06:49:00,
2013-01-21 23:54:00,48.9,11.4,31.14,West,270,5.8,11.4,22,0.00,,,0.00,WUHU216HW,2013-01-22 06:54:00,
2013-01-21 23:59:00,48.7,12.2,31.13,WSW,248,9.8,11.4,23,0.00,,,0.00,WUHU216HW,2013-01-22 06:59:00,